Find Starlink 11539

NORAD ID: 62987 Int'l Des: 2025-031 Owner: SPXS Country: US Constellation: starlink operational
LEOCIRCULAR

Current View

Loading 3D Globe...

About Starlink 11539

Starlink 11539 (NORAD 62987) is a starlink constellation satellite (v2 mini d2c) launched Feb 11, 2025 by SPXS of US. It operates in LEO, CIRCULAR orbit with a mass of 960.00 kg.

About Starlink 11539

Description loading...

Upcoming Passes

Passes for default location (London). Set your location on the main map for personalized predictions.

Altitude History

Loading altitude history...

Two-Line Element Set

1 62987U 25031G 26171.19046746 .00210163 00000-0 15983-2 0 9998
2 62987 43.0013 103.5711 0002065 255.0762 104.9877 15.70868585 78861
Epoch: Jun 20, 2026 • Age: 9 hours

Current Status

Altitude 361.5 km
Velocity 7.69 km/s
Sub-Earth Point -24.90°S, 40.63°W
Launch Date Feb 11, 2025
Age 1.3 years
Type internet

Technical Details

Classification Payload
Mass 960.00 kg
Dry Mass 910.00 kg
Total Mass 960.00 kg
Length 0.30 m
Diameter 4.10 m
Span 29.00 m
Shape Box + pan
Manufacturer SPXS
Bus Type Starlink V2MD
Phase Status In Orbit
Owner/State SPXS/US

Most Searched